Wind_Speed
6 6 6 6 7 7 7 8 8 9 10 11 11 12 12 12 12 12 12 12 13 12 12 11 10 9 7 6 5 5 5 6 8 10 12 14 16 17 18 20 21 23 24
6 6 6 7 7 7 7 8 9 10 10 11 11 12 12 12 12 12 12 12 13 13 12 12 11 10 8 7 7 6 6 7 8 10 12 13 15 17 18 20 22 23 24
7 7 7 7 7 8 8 9 10 10 11 11 12 12 12 12 12 12 12 13 13 13 13 12 12 11 9 9 8 8 8 9 9 10 11 13 14 16 18 19 22 24 25
8 8 8 8 8 9 9 10 11 11 12 13 13 13 13 13 13 13 13 14 14 14 14 14 13 13 12 11 11 11 11 11 12 12 13 14 15 16 18 20 21 24 25
9 9 9 9 10 10 11 12 13 13 14 14 14 14 14 14 15 15 15 15 16 16 16 16 15 15 15 14 14 14 14 14 14 15 15 16 18 19 20 21 22 24 25
10 10 11 11 12 12 13 14 15 15 15 16 16 16 16 16 17 17 17 17 18 18 18 18 18 18 18 18 17 17 17 17 17 18 18 19 20 21 22 23 24 25 26
12 12 12 13 14 14 15 16 16 17 18 18 18 19 19 19 19 19 20 20 21 21 21 21 21 21 21 21 21 21 21 21 21 21 22 22 23 24 24 25 26 26 27
14 14 15 15 16 17 17 18 19 19 20 20 21 21 22 22 22 22 23 23 24 24 24 25 25 25 25 25 25 25 25 25 25 25 25 26 26 27 27 28 29 29 29
16 17 17 18 19 19 20 21 21 22 23 23 24 25 25 25 25 26 26 27 27 28 28 29 29 29 29 30 30 29 28 28 28 28 28 29 29 30 30 31 31 32 32
19 20 20 21 21 22 23 24 25 25 26 26 27 28 28 28 29 30 30 30 31 31 32 32 33 33 34 34 34 33 32 32 32 32 32 32 33 33 33 33 34 35 35
22 22 23 24 25 25 26 27 28 28 29 30 30 31 31 31 32 33 34 34 35 35 36 36 37 37 37 37 37 37 36 36 36 36 36 36 36 36 36 36 37 37 37
24 25 26 27 28 29 30 30 31 32 32 33 34 34 34 35 36 37 37 38 39 39 40 40 40 40 40 40 40 40 40 39 39 39 39 38 38 38 39 39 39 39 39
27 28 29 30 31 32 33 33 34 35 36 36 37 37 38 38 39 40 41 42 43 43 44 44 44 44 44 43 43 43 43 43 42 41 41 40 40 40 41 40 40 40 39
30 31 32 33 33 34 35 36 37 38 39 39 40 40 41 42 43 44 45 45 46 47 47 47 47 47 46 46 45 44 44 44 44 43 42 42 42 42 42 42 41 42 41
33 34 35 35 36 37 38 39 40 41 42 42 43 43 44 45 46 47 48 49 49 50 50 49 49 48 47 46 45 44 44 45 45 44 43 43 43 43 43 43 43 43 43
36 37 37 38 39 40 41 42 43 44 45 46 46 47 48 49 49 51 52 52 52 51 50 49 49 48 47 46 45 45 46 46 46 46 45 45 45 44 44 44 45 44 45
39 40 41 42 42 43 44 45 46 47 48 49 49 50 51 52 53 53 53 53 52 52 51 50 50 49 48 48 47 47 47 47 48 48 48 47 47 47 46 46 46 47 46
42 43 44 45 46 46 47 48 49 50 51 52 52 53 54 54 54 55 55 54 53 53 52 52 51 50 50 49 49 49 49 49 49 49 49 48 47 47 47 47 47 46 46
45 46 47 47 48 49 50 51 52 53 54 54 54 54 55 55 56 56 56 55 54 53 53 52 52 51 51 51 51 51 50 49 48 48 48 47 48 47 46 46 47 46 46
47 48 49 50 51 52 53 54 55 56 56 56 56 56 56 56 55 55 55 55 54 54 53 53 53 53 52 52 52 51 50 49 49 49 48 48 48 47 47 47 47 48 47
49 50 51 52 53 54 55 56 57 58 58 58 57 57 57 56 55 55 55 55 54 54 54 54 54 53 53 52 50 49 48 47 47 48 48 47 47 46 46 46 46 47 46
51 52 53 54 55 56 57 58 58 58 58 58 57 57 57 57 56 56 56 55 55 55 54 54 54 53 51 50 49 48 47 46 45 46 46 46 45 46 46 46 46 46 46
53 54 55 56 57 58 58 58 57 57 57 58 58 57 57 58 57 57 56 56 55 54 53 52 51 50 49 49 49 48 47 46 45 45 45 45 45 45 45 45 45 45 44
55 56 57 57 57 57 57 57 57 58 58 58 58 58 58 58 58 57 57 55 55 53 52 51 50 49 49 49 49 48 47 46 45 45 43 43 44 44 44 45 45 45 43
56 57 57 57 57 57 57 58 58 59 59 59 59 59 58 57 57 57 56 54 53 52 51 50 50 49 48 47 46 45 45 44 44 43 42 40 41 42 42 43 44 45 44
57 57 57 58 58 58 58 59 59 59 59 59 58 58 57 56 55 54 53 52 51 50 49 48 47 47 45 44 43 42 42 41 41 40 39 38 38 39 39 40 42 43 44
Wind_Direction
274 284 290 298 306 311 314 319 324 328 331 334 338 342 343 343 345 348 350 352 354 355 356 356 354 349 338 330 314 290 264 253 248 242 237 235 233 232 232 229 228 227 226
273 283 293 296 300 306 309 313 317 321 324 326 329 333 337 338 338 341 343 344 346 347 347 347 347 344 334 324 313 296 279 267 259 248 243 240 239 239 236 233 232 232 231
273 284 293 297 301 303 306 309 313 315 317 319 321 324 328 331 331 333 335 336 338 339 340 338 337 336 331 321 313 301 288 277 268 259 251 247 244 244 242 239 237 235 234
275 283 290 296 299 301 304 308 311 313 313 313 314 316 318 322 325 325 326 327 328 330 331 330 327 326 322 315 307 301 293 284 275 267 260 254 252 250 247 243 240 239 238
276 282 288 293 296 298 300 303 306 308 309 309 309 310 311 315 319 320 319 320 320 321 321 321 319 316 314 309 303 298 293 285 277 271 265 260 256 254 252 249 245 242 241
276 280 285 290 292 295 298 302 303 304 305 305 305 305 306 307 311 313 313 314 314 314 314 314 313 311 308 306 301 296 291 284 278 274 269 265 262 259 255 251 249 246 244
277 280 283 287 289 293 296 299 301 302 303 303 303 303 302 302 304 307 307 308 308 308 308 307 306 305 303 301 299 296 291 285 280 275 271 267 265 263 260 256 253 251 249
277 280 283 285 288 291 294 296 298 300 300 300 300 299 298 298 299 301 302 302 303 304 303 303 302 301 300 298 295 293 290 286 281 276 272 269 266 265 262 259 256 255 253
278 280 282 285 287 289 292 294 296 297 297 296 297 297 296 296 297 298 298 299 299 300 300 299 299 298 297 295 293 290 288 285 281 277 273 269 266 264 263 261 258 257 256
279 281 283 285 286 288 290 293 294 295 295 296 296 296 294 294 295 296 296 297 297 298 298 297 297 296 295 293 291 288 286 284 281 277 274 271 268 264 262 261 260 258 256
280 281 283 285 286 288 290 291 293 293 294 295 295 295 294 293 294 295 295 296 296 296 296 295 295 294 293 290 288 285 284 282 280 277 274 272 269 265 263 261 259 258 256
281 282 284 285 286 287 289 290 291 292 293 293 294 294 294 293 294 294 294 295 295 296 295 294 294 292 291 289 286 283 282 281 280 277 274 271 269 266 263 260 258 256 255
282 283 285 286 286 287 288 289 291 292 292 292 292 292 293 293 293 294 294 295 295 295 295 294 293 292 290 288 285 283 280 280 279 276 274 271 269 266 262 259 256 255 254
283 284 285 286 286 287 288 289 291 292 292 292 291 291 292 292 293 294 294 295 295 295 294 293 292 292 291 289 286 282 280 278 277 275 273 270 267 265 262 259 256 253 252
283 284 285 286 287 287 288 289 290 291 291 291 291 291 292 292 293 293 294 295 295 295 294 293 292 291 290 288 285 282 279 277 275 274 273 270 267 265 262 259 256 254 252
283 285 286 287 288 288 289 289 290 291 291 292 291 291 292 293 294 294 295 296 295 294 293 292 291 290 289 288 285 282 279 276 274 272 271 268 266 264 261 258 255 254 253
284 285 287 288 289 289 289 290 290 291 292 292 292 292 292 294 294 294 294 295 294 293 292 291 291 289 288 287 285 283 280 277 274 272 270 267 265 263 260 257 254 253 253
285 286 287 288 289 290 290 290 291 292 292 292 292 292 293 294 294 294 294 293 293 292 291 291 290 289 287 286 284 283 280 277 274 271 269 266 264 262 258 255 253 252 252
285 286 287 288 289 290 291 291 292 293 293 292 292 293 293 293 293 293 293 293 292 291 291 290 289 288 287 286 284 282 280 277 274 270 268 265 263 260 257 254 253 252 250
285 287 288 289 290 291 291 292 293 294 294 293 293 293 293 293 292 292 292 291 291 291 291 290 289 288 287 286 284 282 280 277 273 270 268 266 262 259 255 252 252 251 249
286 287 288 289 290 291 292 292 293 294 294 293 293 293 294 293 292 292 292 291 291 291 290 289 289 288 287 286 284 282 281 278 275 271 269 266 261 257 254 251 250 248 248
287 288 288 289 290 291 292 293 293 294 294 293 293 293 293 292 293 292 292 291 291 291 291 290 288 288 286 284 283 281 281 279 274 271 269 266 261 257 254 252 249 246 245
287 288 289 290 291 292 292 293 293 293 293 293 293 293 293 292 292 292 291 291 290 290 290 289 288 286 285 283 282 280 280 278 274 271 269 265 260 256 254 251 249 247 244
288 289 289 290 291 292 292 292 292 293 293 293 293 293 293 292 291 291 291 290 289 289 288 287 286 286 285 283 282 280 279 278 275 271 268 264 259 255 251 249 248 246 243
288 289 290 290 291 292 292 292 293 293 294 294 294 294 294 293 292 291 291 289 288 287 287 286 285 285 284 283 282 280 279 277 275 271 267 264 259 255 251 248 245 242 241
289 289 290 291 292 292 292 293 293 293 294 294 294 294 294 293 293 292 290 289 287 286 286 285 284 283 283 283 283 281 278 275 273 270 267 264 259 254 250 246 243 242 240
Height
5849 5849 5848 5847 5847 5846 5845 5843 5842 5841 5839 5838 5836 5834 5832 5830 5828 5825 5823 5821 5819 5817 5815 5813 5811 5809 5808 5807 5806 5805 5805 5806 5806 5807 5808 5809 5811 5812 5814 5817 5819 5822 5824
5847 5847 5846 5845 5844 5844 5843 5842 5840 5839 5838 5836 5834 5833 5831 5829 5827 5825 5822 5820 5818 5816 5814 5812 5810 5808 5807 5806 5805 5804 5804 5804 5804 5805 5805 5806 5807 5809 5810 5812 5815 5817 5819
5845 5844 5844 5843 5842 5841 5841 5839 5838 5837 5835 5834 5832 5831 5829 5827 5825 5823 5821 5819 5817 5815 5813 5811 5809 5808 5806 5805 5804 5803 5802 5802 5802 5802 5803 5803 5804 5805 5807 5808 5810 5812 5814
5842 5842 5841 5840 5840 5839 5838 5837 5836 5834 5833 5831 5830 5828 5827 5825 5823 5821 5820 5818 5816 5814 5812 5810 5808 5806 5804 5803 5802 5801 5800 5799 5799 5799 5799 5800 5800 5801 5802 5803 5805 5806 5808
5839 5839 5838 5838 5837 5836 5835 5834 5833 5831 5830 5828 5827 5825 5824 5822 5820 5819 5817 5815 5813 5811 5809 5807 5805 5804 5802 5800 5799 5798 5797 5796 5795 5795 5795 5795 5796 5796 5797 5798 5799 5800 5802
5836 5836 5835 5834 5834 5832 5831 5830 5829 5828 5826 5824 5823 5821 5820 5818 5817 5815 5813 5812 5810 5808 5806 5804 5802 5800 5798 5796 5795 5793 5792 5791 5791 5790 5790 5790 5790 5790 5791 5792 5793 5794 5796
5832 5832 5831 5831 5830 5829 5827 5826 5825 5823 5822 5820 5818 5817 5815 5814 5812 5810 5809 5807 5805 5803 5802 5800 5798 5795 5793 5792 5790 5788 5787 5785 5785 5784 5784 5783 5783 5783 5784 5784 5785 5786 5788
5828 5828 5827 5826 5825 5824 5823 5822 5820 5818 5817 5815 5813 5812 5810 5808 5807 5805 5803 5801 5800 5798 5796 5793 5791 5789 5787 5785 5783 5782 5780 5778 5777 5776 5776 5776 5775 5775 5775 5776 5777 5778 5779
5823 5823 5822 5821 5820 5819 5818 5816 5814 5813 5811 5809 5807 5805 5803 5802 5800 5798 5796 5795 5793 5790 5788 5786 5783 5781 5779 5776 5774 5773 5771 5769 5767 5766 5766 5766 5766 5766 5766 5767 5767 5769 5770
5818 5817 5816 5815 5814 5813 5811 5810 5808 5806 5804 5802 5800 5798 5796 5794 5792 5790 5788 5786 5784 5782 5780 5777 5774 5771 5769 5766 5763 5762 5760 5759 5757 5756 5755 5755 5755 5755 5755 5756 5757 5758 5759
5812 5811 5810 5808 5807 5806 5804 5802 5800 5798 5796 5794 5792 5790 5788 5786 5783 5781 5778 5776 5774 5772 5769 5766 5763 5760 5757 5754 5752 5750 5748 5747 5745 5744 5743 5743 5743 5743 5743 5744 5745 5746 5747
5804 5803 5802 5801 5799 5797 5796 5794 5792 5790 5787 5785 5783 5780 5778 5775 5773 5770 5768 5765 5762 5760 5757 5754 5751 5748 5745 5742 5739 5736 5735 5733 5732 5731 5730 5730 5729 5729 5730 5730 5731 5732 5734
5796 5795 5793 5792 5790 5788 5786 5784 5782 5780 5777 5775 5772 5770 5767 5765 5762 5759 5756 5753 5750 5747 5743 5740 5737 5733 5730 5727 5725 5722 5720 5718 5716 5715 5715 5715 5715 5715 5715 5716 5717 5719 5721
5787 5786 5784 5782 5780 5778 5776 5774 5771 5769 5766 5763 5760 5758 5756 5753 5750 5747 5743 5740 5736 5732 5729 5725 5721 5718 5714 5711 5709 5706 5704 5702 5700 5700 5699 5699 5699 5699 5700 5701 5703 5705 5707
5778 5776 5774 5772 5770 5768 5765 5762 5760 5757 5753 5751 5748 5745 5743 5740 5737 5733 5729 5725 5721 5717 5713 5709 5706 5702 5699 5695 5692 5690 5688 5686 5685 5684 5683 5683 5684 5684 5685 5686 5688 5690 5693
5768 5766 5764 5762 5759 5757 5754 5751 5747 5744 5741 5737 5734 5731 5728 5725 5721 5718 5713 5709 5704 5700 5696 5693 5690 5686 5682 5679 5677 5674 5672 5670 5669 5668 5667 5667 5668 5668 5670 5671 5673 5675 5678
5757 5754 5752 5750 5747 5744 5741 5738 5735 5732 5728 5724 5720 5716 5713 5709 5705 5701 5697 5693 5688 5684 5680 5677 5673 5670 5666 5663 5660 5658 5656 5654 5652 5651 5650 5651 5651 5652 5653 5655 5657 5659 5662
5744 5742 5740 5737 5734 5731 5728 5724 5721 5718 5714 5710 5705 5701 5697 5693 5688 5684 5680 5676 5672 5668 5663 5660 5656 5652 5649 5646 5643 5640 5638 5636 5634 5633 5633 5633 5634 5634 5636 5638 5641 5643 5646
5732 5729 5726 5723 5720 5716 5713 5709 5706 5702 5698 5694 5690 5685 5680 5676 5672 5667 5662 5658 5654 5651 5647 5643 5639 5635 5631 5628 5625 5622 5619 5618 5616 5615 5615 5615 5616 5617 5619 5621 5624 5627 5630
5718 5715 5712 5709 5705 5702 5698 5694 5690 5685 5681 5677 5673 5668 5663 5659 5655 5650 5645 5641 5636 5633 5629 5625 5621 5617 5613 5610 5606 5603 5601 5599 5598 5597 5597 5597 5599 5600 5602 5605 5608 5611 5615
5704 5701 5697 5694 5690 5686 5682 5677 5673 5668 5664 5659 5655 5650 5645 5641 5637 5633 5628 5624 5620 5616 5611 5607 5603 5599 5595 5592 5588 5586 5584 5582 5580 5579 5579 5580 5581 5583 5585 5588 5591 5594 5599
5689 5685 5682 5678 5674 5670 5665 5660 5656 5651 5646 5642 5638 5633 5628 5623 5619 5615 5611 5606 5602 5598 5593 5589 5585 5581 5578 5574 5571 5569 5567 5565 5564 5563 5562 5563 5564 5566 5569 5572 5575 5578 5582
5673 5670 5666 5662 5657 5653 5648 5644 5639 5634 5629 5624 5620 5615 5610 5605 5601 5596 5592 5588 5584 5580 5575 5571 5567 5564 5561 5558 5555 5552 5551 5549 5548 5547 5546 5547 5548 5550 5553 5556 5559 5563 5567
5657 5653 5649 5645 5640 5636 5631 5627 5622 5617 5612 5607 5602 5597 5592 5587 5583 5578 5574 5570 5566 5562 5558 5554 5551 5548 5544 5541 5539 5536 5534 5533 5531 5531 5531 5530 5532 5534 5536 5540 5544 5548 5552
5640 5636 5632 5628 5623 5619 5614 5610 5605 5600 5594 5589 5584 5579 5574 5569 5565 5560 5556 5552 5548 5545 5541 5537 5534 5531 5528 5525 5522 5520 5518 5516 5515 5514 5514 5515 5517 5519 5521 5525 5529 5533 5538
5623 5619 5615 5611 5606 5602 5597 5592 5587 5582 5577 5572 5567 5562 5557 5552 5547 5543 5539 5535 5531 5528 5524 5521 5518 5515 5512 5509 5507 5505 5503 5502 5500 5500 5499 5500 5502 5504 5507 5510 5514 5519 5523